When you browse on this site, cookies collect data to enhance your experience and personalize the content and advertising you see.
Visit our Privacy Policy to learn more. By continuing to use the site, you agree to this use of cookies and data.

Meteo orario Tytarivka

Oggi, 13 Luglio, Lunedi

Tempo Temperatura Precipitazioni Vento Pressione Umidità
00:00 +21°C° 1.2 mm 3 m/s 749 mm Hg 76%
01:00 +21°C° 0.8 mm 3 m/s 749 mm Hg 79%
02:00 +20°C° 0.8 mm 3 m/s 749 mm Hg 81%
03:00 +20°C° 0 mm 2 m/s 748 mm Hg 82%
04:00 +20°C° 0 mm 2 m/s 748 mm Hg 82%
05:00 +20°C° 0 mm 2 m/s 748 mm Hg 83%
06:00 +20°C° 0 mm 2 m/s 747 mm Hg 84%
07:00 +23°C° 0 mm 2 m/s 747 mm Hg 77%
08:00 +25°C° 0 mm 3 m/s 747 mm Hg 71%
09:00 +27°C° 0 mm 2 m/s 748 mm Hg 64%
10:00 +29°C° 0 mm 2 m/s 748 mm Hg 58%
11:00 +31°C° 0 mm 3 m/s 747 mm Hg 53%
12:00 +33°C° 0 mm 3 m/s 747 mm Hg 47%
13:00 +32°C° 0.1 mm 4 m/s 747 mm Hg 51%
14:00 +32°C° 0.1 mm 4 m/s 747 mm Hg 54%
15:00 +32°C° 0 mm 2 m/s 747 mm Hg 46%
16:00 +31°C° 0.3 mm 2 m/s 747 mm Hg 51%
17:00 +31°C° 0.3 mm 2 m/s 746 mm Hg 56%
18:00 +30°C° 0.3 mm 2 m/s 746 mm Hg 60%
19:00 +27°C° 1.7 mm 2 m/s 746 mm Hg 69%
20:00 +25°C° 1.7 mm 2 m/s 746 mm Hg 77%
21:00 +21°C° 1.7 mm 2 m/s 746 mm Hg 86%
22:00 +21°C° 1.2 mm 2 m/s 746 mm Hg 88%
23:00 +21°C° 1.2 mm 2 m/s 745 mm Hg 91%

Domani, 14 Luglio, Martedi

Tempo Temperatura Precipitazioni Vento Pressione Umidità
00:00 +21°C° 1.2 mm 2 m/s 745 mm Hg 94%
01:00 +21°C° 1.3 mm 3 m/s 745 mm Hg 94%
02:00 +20°C° 1.3 mm 3 m/s 745 mm Hg 94%
03:00 +20°C° 1.3 mm 4 m/s 745 mm Hg 94%
04:00 +20°C° 3.8 mm 3 m/s 745 mm Hg 95%
05:00 +20°C° 3.8 mm 2 m/s 745 mm Hg 95%
06:00 +21°C° 3.8 mm 1 m/s 744 mm Hg 96%
07:00 +21°C° 0.2 mm 2 m/s 745 mm Hg 90%
08:00 +22°C° 0.2 mm 3 m/s 745 mm Hg 84%
09:00 +23°C° 0.2 mm 4 m/s 745 mm Hg 78%
10:00 +25°C° 0.5 mm 5 m/s 745 mm Hg 75%
11:00 +25°C° 0.5 mm 5 m/s 745 mm Hg 73%
12:00 +26°C° 0.5 mm 5 m/s 745 mm Hg 70%
13:00 +26°C° 0.5 mm 5 m/s 746 mm Hg 67%
14:00 +26°C° 0.5 mm 6 m/s 746 mm Hg 64%
15:00 +27°C° 0.5 mm 6 m/s 746 mm Hg 62%
16:00 +26°C° 0.2 mm 6 m/s 746 mm Hg 65%
17:00 +24°C° 0.2 mm 6 m/s 746 mm Hg 67%
18:00 +23°C° 0.2 mm 6 m/s 747 mm Hg 70%
19:00 +21°C° 0 mm 6 m/s 747 mm Hg 75%
20:00 +20°C° 0 mm 5 m/s 748 mm Hg 79%
21:00 +19°C° 0 mm 5 m/s 748 mm Hg 84%
22:00 +17°C° 0.1 mm 5 m/s 748 mm Hg 85%
23:00 +16°C° 0.1 mm 5 m/s 749 mm Hg 87%

Dopodomani, 15 Luglio, Mercoledi

Tempo Temperatura Precipitazioni Vento Pressione Umidità
00:00 +16°C° 0.1 mm 5 m/s 749 mm Hg 88%
01:00 +16°C° 0 mm 5 m/s 749 mm Hg 86%
02:00 +15°C° 0 mm 5 m/s 749 mm Hg 85%
03:00 +15°C° 0 mm 5 m/s 750 mm Hg 83%
04:00 +15°C° 0 mm 5 m/s 750 mm Hg 83%
05:00 +15°C° 0 mm 5 m/s 750 mm Hg 83%
06:00 +16°C° 0 mm 6 m/s 751 mm Hg 83%
07:00 +16°C° 0 mm 6 m/s 751 mm Hg 82%
08:00 +16°C° 0 mm 6 m/s 752 mm Hg 80%
09:00 +17°C° 0 mm 6 m/s 752 mm Hg 79%
10:00 +19°C° 0.1 mm 6 m/s 752 mm Hg 73%
11:00 +20°C° 0.1 mm 6 m/s 752 mm Hg 68%
12:00 +22°C° 0.1 mm 6 m/s 752 mm Hg 62%
13:00 +23°C° 0 mm 6 m/s 752 mm Hg 57%
14:00 +23°C° 0 mm 6 m/s 753 mm Hg 52%
15:00 +24°C° 0 mm 6 m/s 753 mm Hg 47%
16:00 +24°C° 0 mm 6 m/s 753 mm Hg 49%
17:00 +23°C° 0 mm 5 m/s 753 mm Hg 51%
18:00 +23°C° 0 mm 5 m/s 753 mm Hg 53%
19:00 +21°C° 0 mm 4 m/s 753 mm Hg 58%
20:00 +20°C° 0 mm 3 m/s 753 mm Hg 63%
21:00 +18°C° 0 mm 2 m/s 754 mm Hg 68%
22:00 +18°C° 0 mm 2 m/s 754 mm Hg 69%
23:00 +17°C° 0 mm 2 m/s 754 mm Hg 70%

16 Luglio, Giovedi

Tempo Temperatura Precipitazioni Vento Pressione Umidità
00:00 +17°C° 0 mm 2 m/s 754 mm Hg 71%
01:00 +16°C° 0 mm 2 m/s 754 mm Hg 73%
02:00 +16°C° 0 mm 2 m/s 754 mm Hg 74%
03:00 +14°C° 0 mm 3 m/s 754 mm Hg 76%
04:00 +16°C° 0 mm 2 m/s 754 mm Hg 77%
05:00 +16°C° 0 mm 2 m/s 754 mm Hg 78%
06:00 +16°C° 0 mm 2 m/s 754 mm Hg 79%
07:00 +18°C° 0 mm 2 m/s 754 mm Hg 74%
08:00 +19°C° 0 mm 2 m/s 754 mm Hg 68%
09:00 +21°C° 0 mm 2 m/s 754 mm Hg 62%
10:00 +22°C° 0 mm 3 m/s 754 mm Hg 58%
11:00 +24°C° 0 mm 3 m/s 754 mm Hg 53%
12:00 +25°C° 0 mm 3 m/s 754 mm Hg 49%
13:00 +25°C° 0 mm 3 m/s 754 mm Hg 49%
14:00 +26°C° 0 mm 3 m/s 754 mm Hg 49%
15:00 +26°C° 0 mm 3 m/s 753 mm Hg 48%
16:00 +26°C° 0 mm 3 m/s 753 mm Hg 50%
17:00 +25°C° 0 mm 3 m/s 753 mm Hg 51%
18:00 +25°C° 0 mm 2 m/s 753 mm Hg 52%
19:00 +24°C° 0 mm 2 m/s 753 mm Hg 56%
20:00 +22°C° 0 mm 1 m/s 753 mm Hg 61%
21:00 +20°C° 0 mm 1 m/s 753 mm Hg 65%
22:00 +19°C° 0 mm 1 m/s 753 mm Hg 67%
23:00 +19°C° 0 mm 1 m/s 753 mm Hg 69%

17 Luglio, Venerdi

Tempo Temperatura Precipitazioni Vento Pressione Umidità
00:00 +18°C° 0 mm 1 m/s 753 mm Hg 71%
01:00 +18°C° 0 mm 1 m/s 753 mm Hg 72%
02:00 +16°C° 0 mm 1 m/s 753 mm Hg 74%
03:00 +16°C° 0 mm 1 m/s 753 mm Hg 76%
04:00 +16°C° 0 mm 1 m/s 753 mm Hg 76%
05:00 +18°C° 0 mm 1 m/s 753 mm Hg 75%
06:00 +18°C° 0 mm 1 m/s 753 mm Hg 75%
07:00 +20°C° 0 mm 1 m/s 753 mm Hg 69%
08:00 +21°C° 0 mm 1 m/s 753 mm Hg 63%
09:00 +23°C° 0 mm 1 m/s 753 mm Hg 58%
10:00 +24°C° 0 mm 1 m/s 753 mm Hg 54%
11:00 +25°C° 0 mm 1 m/s 753 mm Hg 49%
12:00 +24°C° 0 mm 0 m/s 753 mm Hg 45%
13:00 +27°C° 0 mm 1 m/s 753 mm Hg 43%
14:00 +27°C° 0 mm 1 m/s 753 mm Hg 41%
15:00 +27°C° 0 mm 1 m/s 753 mm Hg 39%
16:00 +27°C° 0 mm 1 m/s 753 mm Hg 41%
17:00 +27°C° 0 mm 2 m/s 753 mm Hg 42%
18:00 +27°C° 0 mm 2 m/s 753 mm Hg 44%
19:00 +25°C° 0 mm 2 m/s 753 mm Hg 49%
20:00 +23°C° 0 mm 2 m/s 753 mm Hg 55%
21:00 +20°C° 0 mm 2 m/s 753 mm Hg 60%
22:00 +20°C° 0 mm 1 m/s 753 mm Hg 62%
23:00 +20°C° 0 mm 1 m/s 753 mm Hg 64%

18 Luglio, Sabato

Tempo Temperatura Precipitazioni Vento Pressione Umidità
00:00 +19°C° 0 mm 1 m/s 754 mm Hg 66%
01:00 +19°C° 0 mm 1 m/s 754 mm Hg 69%
02:00 +18°C° 0 mm 1 m/s 754 mm Hg 71%
03:00 +18°C° 0 mm 1 m/s 754 mm Hg 74%
04:00 +18°C° 0 mm 1 m/s 754 mm Hg 75%
05:00 +19°C° 0 mm 1 m/s 754 mm Hg 76%
06:00 +19°C° 0 mm 1 m/s 754 mm Hg 76%
07:00 +21°C° 0 mm 1 m/s 754 mm Hg 70%
08:00 +23°C° 0 mm 2 m/s 755 mm Hg 64%
09:00 +25°C° 0 mm 2 m/s 755 mm Hg 57%
10:00 +26°C° 0 mm 2 m/s 755 mm Hg 53%
11:00 +27°C° 0 mm 2 m/s 755 mm Hg 48%
12:00 +28°C° 0 mm 2 m/s 755 mm Hg 44%
13:00 +28°C° 0 mm 1 m/s 754 mm Hg 41%
14:00 +29°C° 0 mm 1 m/s 754 mm Hg 39%
15:00 +29°C° 0 mm 1 m/s 754 mm Hg 37%
16:00 +29°C° 0 mm 1 m/s 754 mm Hg 39%
17:00 +29°C° 0 mm 2 m/s 753 mm Hg 40%
18:00 +29°C° 0 mm 2 m/s 753 mm Hg 41%
19:00 +27°C° 0 mm 2 m/s 753 mm Hg 45%
20:00 +25°C° 0 mm 2 m/s 753 mm Hg 48%
21:00 +24°C° 0 mm 2 m/s 754 mm Hg 52%
22:00 +23°C° 0 mm 2 m/s 754 mm Hg 57%
23:00 +21°C° 0 mm 2 m/s 754 mm Hg 61%
Mostrare altro